Soldotna, AK

6:23 AM AKDT on May 27, 2017 (GMT -0800)
Soldotna

Weather History for PASX - April, 2013

Change the Weather History Date:

Friday, April 12, 2013

  Actual Average Record
Temperature  
Mean Temperature 13 °F -  
Max Temperature 28 °F 38 °F 55 °F (1953)
Min Temperature -2 °F 24 °F -15 °F (1985)
Degree Days  
Heating Degree Days 52    
Moisture  
Dew Point 1 °F    
Average Humidity 54    
Maximum Humidity 92    
Minimum Humidity 31    
Precipitation  
Precipitation 0.00 in - - ()
Sea Level Pressure  
Sea Level Pressure 30.10 in    
Wind  
Wind Speed 3 mph (North)    
Max Wind Speed 10 mph    
Max Gust Speed 21 mph    
Visibility 10 miles    
Events      
Averages and records for this station are not official NWS values.
T = Trace of Precipitation, MM = Missing Value Source: NWS Daily Summary

Daily Weather History Graph

Daily Weather History Graph

Search for Another Location

Airport or City:

Trip Planner

Search our weather history database for the weather conditions in past years. The results will help you decide how hot, cold, wet, or windy it might be!

Date:

Astronomy

Apr. 12, 2013 Rise Set
Actual Time 6:53 AM AKDT 9:17 PM AKDT
Civil Twilight 6:07 AM AKDT 10:04 PM AKDT
Nautical Twilight 5:06 AM AKDT 11:06 PM AKDT
Astronomical Twilight 3:43 AM AKDT 12:32 AM AKDT
Moon 7:33 AM AKDT (4/12) No Moon Set
Length of Visible Light 15h 56m
Length of Day
14h 24m
Waxing Crescent, 6% of the Moon is Illuminated
Apr 12
Waxing Crescent
Apr 18
First Quarter
Apr 25
Full
May 2
Last Quarter
May 9
New

Hourly Weather History & Observations

Time (AKDT) Temp. Windchill Dew Point Humidity Pressure Visibility Wind Dir Wind Speed Gust Speed Precip Events Conditions
12:16 AM 12.2 °F - 1.4 °F 62% 30.11 in 10.0 mi Calm Calm - N/A   Clear
12:36 AM 12.2 °F - 1.4 °F 62% 30.11 in 10.0 mi Calm Calm - N/A   Clear
1:16 AM 8.6 °F - -0.4 °F 67% 30.11 in 10.0 mi Calm Calm - N/A   Clear
1:36 AM 6.8 °F - -0.4 °F 72% 30.11 in 10.0 mi Calm Calm - N/A   Clear
1:56 AM 6.8 °F - -0.4 °F 72% 30.12 in 10.0 mi Calm Calm - N/A   Clear
2:16 AM 5.0 °F - -2.2 °F 72% 30.12 in 10.0 mi Calm Calm - N/A   Clear
2:36 AM 3.2 °F - -2.2 °F 78% 30.12 in 10.0 mi Calm Calm - N/A   Clear
2:56 AM 3.2 °F - -4.0 °F 72% 30.12 in 10.0 mi Calm Calm - N/A   Clear
3:16 AM 3.2 °F - -2.2 °F 78% 30.12 in 10.0 mi Calm Calm - N/A   Clear
3:36 AM 3.2 °F - -2.2 °F 78% 30.12 in 10.0 mi Calm Calm - N/A   Clear
4:16 AM 1.4 °F -6.2 °F -2.2 °F 85% 30.12 in 10.0 mi ENE 3.5 mph - N/A   Clear
4:36 AM 1.4 °F - -5.8 °F 72% 30.11 in 10.0 mi Calm Calm - N/A   Clear
4:56 AM 1.4 °F - -2.2 °F 85% 30.11 in 10.0 mi Calm Calm - N/A   Clear
5:16 AM -0.4 °F - -5.8 °F 78% 30.11 in 10.0 mi Calm Calm - N/A   Clear
5:36 AM -0.4 °F - -5.8 °F 78% 30.11 in 10.0 mi Calm Calm - N/A   Clear
5:56 AM -0.4 °F - -5.8 °F 78% 30.11 in 10.0 mi Calm Calm - N/A   Clear
6:16 AM -0.4 °F - -7.6 °F 72% 30.11 in 10.0 mi Calm Calm - N/A   Clear
6:56 AM -2.2 °F - -7.6 °F 78% 30.10 in 10.0 mi Calm Calm - N/A   Clear
7:16 AM -2.2 °F -12.5 °F -7.6 °F 78% 30.10 in 10.0 mi ENE 4.6 mph - N/A   Clear
7:36 AM -2.2 °F -10.4 °F -7.6 °F 78% 30.10 in 10.0 mi East 3.5 mph - N/A   Clear
7:56 AM -0.4 °F - -2.2 °F 92% 30.11 in 10.0 mi Calm Calm - N/A   Clear
8:16 AM 1.4 °F - -2.2 °F 85% 30.11 in 10.0 mi Calm Calm - N/A   Clear
8:36 AM 3.2 °F -4.2 °F -2.2 °F 78% 30.11 in 10.0 mi East 3.5 mph - N/A   Clear
8:56 AM 6.8 °F - -0.4 °F 72% 30.11 in 10.0 mi Calm Calm - N/A   Clear
9:16 AM 8.6 °F - 3.2 °F 79% 30.11 in 10.0 mi Calm Calm - N/A   Clear
9:36 AM 10.4 °F - 3.2 °F 73% 30.11 in 10.0 mi Calm Calm - N/A   Clear
9:56 AM 15.8 °F 10.2 °F 3.2 °F 58% 30.10 in 10.0 mi ESE 3.5 mph - N/A   Clear
10:16 AM 17.6 °F 12.3 °F 1.4 °F 49% 30.10 in 10.0 mi East 3.5 mph - N/A   Clear
10:36 AM 17.6 °F 8.2 °F 1.4 °F 49% 30.10 in 10.0 mi ESE 6.9 mph - N/A   Clear
10:56 AM 19.4 °F 14.3 °F 1.4 °F 46% 30.10 in 10.0 mi NNE 3.5 mph - N/A   Clear
11:16 AM 19.4 °F 10.4 °F 3.2 °F 49% 30.10 in 10.0 mi ENE 6.9 mph - N/A   Clear
11:36 AM 21.2 °F 14.9 °F 1.4 °F 42% 30.10 in 10.0 mi NE 4.6 mph - N/A   Clear
11:56 AM 21.2 °F 16.4 °F 1.4 °F 42% 30.09 in 10.0 mi North 3.5 mph - N/A   Clear
12:16 PM 21.2 °F 13.6 °F 1.4 °F 42% 30.09 in 10.0 mi NNE 5.8 mph - N/A   Clear
12:36 PM 21.2 °F 10.9 °F 3.2 °F 46% 30.09 in 10.0 mi NE 9.2 mph - N/A   Clear
12:56 PM 23.0 °F 15.8 °F 1.4 °F 39% 30.09 in 10.0 mi North 5.8 mph - N/A   Clear
1:16 PM 23.0 °F 13.9 °F 1.4 °F 39% 30.09 in 10.0 mi NNE 8.1 mph - N/A   Clear
1:36 PM 24.8 °F 19.1 °F 1.4 °F 36% 30.08 in 10.0 mi NE 4.6 mph - N/A   Clear
1:56 PM 24.8 °F 15.3 °F 1.4 °F 36% 30.08 in 10.0 mi NNE 9.2 mph - N/A   Clear
2:16 PM 26.6 °F 19.1 °F -0.4 °F 31% 30.08 in 10.0 mi NNW 6.9 mph - N/A   Clear
2:36 PM 26.6 °F 17.5 °F -0.4 °F 31% 30.08 in 10.0 mi North 9.2 mph - N/A   Clear
2:56 PM 26.6 °F 17.5 °F -0.4 °F 31% 30.08 in 10.0 mi North 9.2 mph - N/A   Clear
3:16 PM 26.6 °F 19.1 °F 1.4 °F 34% 30.07 in 10.0 mi North 6.9 mph - N/A   Clear
3:36 PM 26.6 °F 16.8 °F 1.4 °F 34% 30.07 in 10.0 mi NNW 10.4 mph 16.1 mph N/A   Clear
3:56 PM 26.6 °F 17.5 °F 1.4 °F 34% 30.07 in 10.0 mi NE 9.2 mph - N/A   Clear
4:16 PM 26.6 °F 16.8 °F 1.4 °F 34% 30.07 in 10.0 mi NNW 10.4 mph 20.7 mph N/A   Clear
4:36 PM 28.4 °F 19.1 °F 1.4 °F 31% 30.07 in 10.0 mi NNE 10.4 mph - N/A   Clear
4:56 PM 28.4 °F 19.7 °F 1.4 °F 31% 30.07 in 10.0 mi North 9.2 mph 17.3 mph N/A   Clear
5:16 PM 28.4 °F 19.7 °F 3.2 °F 34% 30.07 in 10.0 mi North 9.2 mph 16.1 mph N/A   Clear
5:36 PM 28.4 °F 21.2 °F 3.2 °F 34% 30.07 in 10.0 mi North 6.9 mph 17.3 mph N/A   Clear
5:56 PM 28.4 °F 21.2 °F 3.2 °F 34% 30.07 in 10.0 mi North 6.9 mph - N/A   Clear
6:16 PM 28.4 °F 19.1 °F 3.2 °F 34% 30.07 in 10.0 mi North 10.4 mph - N/A   Clear
6:36 PM 28.4 °F 21.2 °F 3.2 °F 34% 30.07 in 10.0 mi North 6.9 mph - N/A   Clear
6:56 PM 28.4 °F 22.2 °F 3.2 °F 34% 30.08 in 10.0 mi North 5.8 mph - N/A   Clear
7:16 PM 28.4 °F 20.4 °F 1.4 °F 31% 30.08 in 10.0 mi NNW 8.1 mph - N/A   Clear
7:36 PM 28.4 °F 19.1 °F 1.4 °F 31% 30.08 in 10.0 mi North 10.4 mph 17.3 mph N/A   Clear
7:56 PM 26.6 °F 17.5 °F 5.0 °F 40% 30.08 in 10.0 mi WNW 9.2 mph - N/A   Clear
8:16 PM 26.6 °F 17.5 °F 8.6 °F 47% 30.09 in 10.0 mi WNW 9.2 mph - N/A   Clear
8:36 PM 26.6 °F 17.5 °F 8.6 °F 47% 30.09 in 10.0 mi WNW 9.2 mph - N/A   Clear
8:56 PM 26.6 °F 17.5 °F 8.6 °F 47% 30.09 in 10.0 mi WNW 9.2 mph - N/A   Clear
9:16 PM 26.6 °F 19.1 °F 8.6 °F 47% 30.09 in 10.0 mi WNW 6.9 mph - N/A   Clear
9:36 PM 24.8 °F 16.9 °F 8.6 °F 50% 30.10 in 10.0 mi West 6.9 mph - N/A   Clear
9:56 PM 24.8 °F 17.9 °F 8.6 °F 50% 30.11 in 10.0 mi WNW 5.8 mph - N/A   Clear
10:16 PM 24.8 °F 19.1 °F 8.6 °F 50% 30.11 in 10.0 mi WNW 4.6 mph - N/A   Clear
10:36 PM 24.8 °F 17.9 °F 10.4 °F 54% 30.12 in 10.0 mi NW 5.8 mph - N/A   Clear
10:56 PM 21.2 °F 14.9 °F 6.8 °F 54% 30.12 in 10.0 mi West 4.6 mph - N/A   Clear
11:16 PM 19.4 °F - 6.8 °F 58% 30.13 in 10.0 mi Calm Calm - N/A   Clear
11:36 PM 21.2 °F - 8.6 °F 58% 30.13 in 10.0 mi Calm Calm - N/A   Clear
11:56 PM 19.4 °F - 3.2 °F 49% 30.13 in 10.0 mi Calm Calm - N/A   Clear